Location: Central Coast NSW, Australia
(33.2407°S, 151.4316°E)
Time: 04:08:18
(UTC+11:00)

Envisat - Pass Details

Date: 23 March 2019
Orbit: 764 x 766 km, 98.1° (Epoch: 18 October)

Event Time Altitude Azimuth Distance (km) Brightness Sun altitude
Rises 06:26:30 0° 54° (NE) 3,230 7.1 -7.7°
Reaches altitude 10° 06:29:29 10° 72° (ENE) 2,313 6.8 -7.0°
Maximum altitude 06:32:49 18° 113° (ESE) 1,839 6.2 -6.3°
Drops below altitude 10° 06:36:10 10° 154° (SSE) 2,331 5.9 -5.6°
Sets 06:39:11 0° 172° (S) 3,266 6.4 -5.0°
